User: anonymous   Login
Location: Huesca
(42.1318°N, 0.4078°W)
Time: 21:33:34
(UTC+02:00)
Language:

AO-73 - Orbit

View from above orbital plane
View from above orbital plane
View from above satellite
View from above satellite

Ground track
Ground track

The orbit data is extracted from the following two-line orbital elements,

1 39444U 13066AE  24112.86554379  .00017575  00000-0  17375-2 0  9997
2 39444  97.7148  73.1343 0047898 330.4788  29.3727 14.91094690562301
Epoch (UTC): 21 April 2024 20:46:22
Eccentricity: 0.0047898
inclination: 97.7148°
perigee height: 561 km
apogee height: 628 km
right ascension of ascending node: 73.1343°
argument of perigee: 330.4788°
revolutions per day: 14.91094690
mean anomaly at epoch: 29.3727°
orbit number at epoch: 56230

The dashed part of the orbit path shows where the satellite is in the earth's shadow,  

DLR